IRIDIUM 11 [+]

Last updated on Wed May 30 2018 00:19:59 GMT+0000 (Coordinated Universal Time)

1 25578U 98074B 18149.43258302 .00000015 00000-0 -16484-5 0 9990 2 25578 86.4211 110.9138 0003198 76.5109 36.5399 14.38606939 27040
UTC large
Height (km)
Speed (km/s)
/
Latitude / Longitude
Inclination (degrees)
Orbital Period (minutes)
Azimuth
Elevation
Range (km)
Doppler Factor

Next 0 passes for location: London (51.5072 / 0.1276)

Sorry there are no passes over London.